Wetbulb
60.27 60.13 59.99 59.81 59.77 59.77 59.77 59.84 59.95 59.95 59.95 59.95 59.90 59.90 59.95 59.95 59.77 59.77 59.82 59.86 59.77 59.59 59.50 59.36 59.19 58.91 58.73 58.87 59.05 59.14 59.19 59.22 59.13 59.00 58.91 58.91 58.91 58.86 58.77 58.64 58.55 58.59 58.77 58.86 59.04 59.22 59.36 59.39 59.57 59.57 59.39 59.17 58.99 58.67 58.21 58.03 57.89 58.21 58.66 58.70 58.70 58.70 58.56 58.34 58.16 58.07 57.97 57.93 57.97
58.42 59.05 59.41 59.50 59.55 59.59 59.55 59.37 59.19 58.91 58.60 58.23 58.19 58.23 58.23 58.28 57.78 57.28 57.01 56.96 57.32 57.50 57.46 57.23 56.77 56.63 56.62 56.75 57.21 57.45 57.54 57.46 57.22 57.23 57.05 57.01 56.85 56.99 57.21 57.81 58.53 59.27 59.54 59.36 59.45 59.59 59.71 59.80 59.80 59.35 58.76 58.26 57.87 57.28 56.73 56.45 56.55 57.26 58.07 58.34 58.52 58.66 58.57 58.35 58.25 58.16 57.97 57.93 57.97
53.06 54.06 54.96 55.82 56.15 55.88 55.15 54.11 53.43 53.16 53.02 53.29 53.61 53.79 53.83 53.83 53.47 53.02 52.56 52.51 52.78 52.95 53.07 52.85 52.64 52.53 52.44 52.48 52.90 53.28 53.63 53.74 53.85 53.85 53.85 53.81 53.82 54.05 54.41 55.05 55.77 56.81 57.89 58.99 59.54 59.77 59.81 59.62 59.35 59.00 58.41 57.78 57.23 56.74 56.28 55.60 55.87 56.73 57.48 57.70 57.88 57.97 58.03 57.94 57.94 57.94 57.98 57.94 57.88
50.89 50.89 50.93 50.89 50.98 50.98 50.98 50.89 50.62 50.62 50.75 51.03 51.16 51.25 51.34 51.43 51.38 51.05 50.77 50.39 50.32 50.22 49.92 49.79 49.67 49.58 49.66 49.68 49.76 50.15 50.48 51.17 51.36 51.38 51.30 51.26 51.36 51.60 52.11 52.74 53.37 54.14 55.08 56.24 57.51 58.61 59.21 59.13 59.04 58.81 58.58 58.36 57.28 57.36 57.39 56.45 56.00 56.27 56.64 56.13 55.99 56.08 56.40 57.07 57.39 57.48 57.57 57.53 57.57
50.02 50.02 50.03 49.85 49.80 49.89 49.93 49.93 49.79 49.93 50.15 50.51 50.36 50.22 50.26 50.34 50.42 50.21 49.67 49.11 48.75 48.44 48.40 48.44 48.46 48.52 48.59 48.45 48.33 48.48 48.67 49.12 49.76 49.59 49.20 48.97 49.02 49.38 49.98 50.63 51.21 51.89 52.56 53.32 54.30 55.47 56.75 57.75 58.82 58.41 57.78 57.86 57.98 57.93 57.70 57.25 57.03 56.90 56.45 55.32 54.69 54.38 54.38 54.73 55.26 55.98 56.52 56.93 57.16
48.85 49.07 49.15 49.20 49.14 49.19 49.28 49.31 49.21 49.29 49.46 49.63 48.89 48.46 48.31 48.51 48.33 48.07 47.82 47.64 47.56 47.62 47.75 47.92 47.84 47.73 47.62 47.29 47.26 47.26 47.18 47.23 47.50 47.50 47.32 47.23 47.23 47.19 47.37 48.13 48.81 49.63 50.40 51.03 51.52 52.10 53.09 54.72 56.40 57.19 57.32 57.46 57.71 57.52 57.07 56.71 57.03 57.08 56.90 56.40 54.74 54.24 54.06 53.29 53.96 54.36 54.91 55.66 56.20
47.47 47.55 47.73 47.94 48.07 48.07 47.98 47.92 47.78 47.54 47.18 46.91 46.58 46.37 46.37 46.56 46.65 46.53 46.66 46.78 46.87 46.96 47.22 47.34 47.07 46.83 46.67 46.42 46.47 46.38 46.30 46.21 46.07 45.98 46.02 46.07 45.98 46.07 46.25 46.34 46.56 47.23 48.09 48.72 49.17 49.58 50.40 51.89 54.19 55.63 56.53 57.12 57.35 57.03 56.58 56.63 56.67 56.58 56.45 56.40 55.36 54.91 55.09 55.86 55.81 55.49 55.18 55.03 55.25
46.04 46.04 46.04 46.08 46.22 46.18 46.06 46.06 46.06 45.93 45.64 45.48 45.19 45.03 45.11 45.28 45.36 45.49 45.66 45.82 45.87 46.07 46.28 46.32 45.96 45.80 45.76 45.76 45.59 45.64 45.55 45.51 45.55 45.45 45.40 45.49 45.35 45.26 45.22 45.30 45.31 45.49 45.80 46.33 46.87 47.37 48.36 50.18 51.98 53.42 54.53 55.27 55.95 56.45 56.62 56.53 56.54 56.50 56.22 56.03 55.81 55.63 55.63 55.90 55.81 55.72 55.48 55.21 54.75
44.84 44.93 45.01 45.05 44.89 44.85 44.74 44.66 44.63 44.38 44.22 44.01 44.05 44.14 44.31 44.35 44.39 44.43 44.47 44.69 44.86 45.07 45.28 45.15 45.03 44.94 44.86 44.69 44.73 44.82 44.86 44.81 44.76 44.84 44.92 45.05 45.00 44.86 44.72 44.58 44.50 44.41 44.41 44.54 44.94 45.39 46.33 48.37 49.45 50.70 51.71 52.57 53.16 53.78 54.46 55.15 55.35 55.68 55.86 55.95 55.95 55.81 55.63 55.49 55.12 54.98 54.85 54.44 54.03
43.58 43.79 43.95 43.95 43.91 43.96 43.92 43.79 43.63 43.37 43.16 42.94 43.07 43.32 43.71 44.05 43.71 43.58 43.62 43.84 44.05 44.13 44.05 43.96 43.88 43.75 43.62 43.53 43.57 43.69 43.68 43.75 43.79 43.82 44.03 44.29 44.37 44.19 43.96 44.04 43.73 43.55 43.55 43.50 43.63 43.81 44.21 45.25 46.10 46.78 47.64 48.67 49.15 49.80 50.59 51.82 52.39 53.13 53.81 54.73 54.95 54.77 54.40 54.22 54.13 54.21 54.26 53.94 53.52
42.37 42.58 42.79 42.83 42.96 43.12 43.08 42.79 42.78 42.65 42.52 42.25 42.33 42.46 42.75 42.88 42.67 42.71 42.89 42.98 42.85 42.67 42.61 42.91 42.74 42.61 42.44 42.27 42.38 42.40 42.38 42.41 42.44 42.47 42.54 42.66 42.93 42.79 42.74 42.91 42.82 42.78 42.73 42.64 42.91 43.09 43.40 43.71 43.85 43.94 44.17 45.21 46.20 47.23 48.33 49.36 49.87 50.55 51.32 52.26 52.94 53.35 53.63 54.03 54.21 54.17 53.99 53.67 53.31
41.54 41.71 41.89 41.98 42.11 42.19 42.15 41.85 41.84 41.71 41.65 41.56 41.55 41.62 41.70 41.64 41.67 41.76 41.86 41.61 41.34 41.33 41.40 41.65 41.61 41.40 41.23 41.28 41.07 41.22 41.25 40.91 40.93 41.10 41.14 40.99 40.99 41.12 41.25 41.43 41.61 41.61 41.65 41.65 41.96 42.27 42.54 42.40 42.32 42.46 42.60 42.82 43.76 44.76 45.71 46.47 47.23 48.09 48.89 49.51 50.31 51.13 51.85 52.49 53.08 53.45 53.68 53.59 53.32
40.84 40.97 41.10 41.27 41.37 41.33 41.16 40.94 40.84 40.78 40.72 40.63 40.67 40.83 40.89 40.90 41.02 40.98 40.73 40.32 40.32 40.24 40.32 40.46 40.58 40.37 40.19 40.13 40.04 40.04 40.21 40.25 40.32 40.48 40.51 40.32 40.28 40.36 40.45 40.67 40.80 40.89 41.02 41.20 41.28 41.37 41.37 41.28 41.29 41.38 41.52 41.65 42.23 42.77 43.31 43.76 44.48 45.43 46.47 47.64 48.17 49.02 49.92 50.69 51.50 52.22 52.81 52.96 53.00
39.99 40.07 40.08 40.18 40.32 40.24 40.19 40.00 39.87 39.80 39.68 39.58 39.71 39.83 39.91 39.88 40.37 40.29 39.97 39.38 39.23 39.16 39.11 39.33 39.77 39.90 39.80 39.45 39.51 39.55 39.68 39.87 39.90 39.93 39.84 39.88 39.83 39.82 39.91 40.13 40.22 40.45 40.72 41.16 40.98 40.80 40.65 40.70 40.70 40.88 40.98 41.20 41.47 41.83 42.15 42.50 42.95 43.53 44.44 45.79 46.74 47.63 48.44 49.17 50.01 50.81 51.58 51.81 52.27
38.94 38.94 38.95 39.12 39.18 39.14 39.05 38.90 38.94 38.78 38.61 38.54 38.63 38.81 38.87 39.00 39.52 39.58 39.35 38.61 38.46 38.54 38.54 38.68 38.99 39.28 39.48 39.36 39.26 39.17 39.30 39.52 39.52 39.39 39.38 39.25 39.20 39.15 39.23 39.37 39.47 39.83 40.14 40.41 40.49 40.40 40.22 40.22 40.26 40.35 40.48 40.53 40.75 41.07 41.38 41.69 42.05 42.54 43.17 44.21 45.52 46.51 47.32 48.00 48.94 49.97 50.68 51.00 51.32
37.82 37.78 37.82 37.82 37.85 37.85 37.85 37.88 37.94 37.82 37.55 37.48 37.47 37.57 37.67 37.78 38.15 38.51 38.56 38.00 37.92 37.98 38.03 38.00 38.14 38.40 38.78 39.48 39.18 39.12 39.08 39.08 39.02 38.89 38.75 38.65 38.61 38.56 38.56 38.65 38.87 39.05 39.23 39.29 39.55 39.60 39.65 39.69 39.82 39.77 39.63 39.58 39.81 40.08 40.48 40.92 41.33 41.78 42.27 42.77 43.94 45.03 46.07 46.96 47.86 48.89 49.56 50.09 50.19
36.87 36.82 36.82 36.81 36.69 36.68 36.71 36.72 36.83 36.81 36.64 36.42 36.33 36.47 36.61 36.70 37.05 37.52 37.83 37.60 37.20 37.02 36.98 36.93 37.28 37.60 37.86 38.45 38.73 38.85 38.80 38.49 38.44 38.26 38.11 37.97 37.79 37.79 37.83 37.88 38.19 38.24 38.28 38.33 38.51 38.61 38.78 38.79 39.05 38.92 38.91 38.82 39.13 39.40 39.72 40.20 40.79 41.24 41.60 42.10 42.73 43.50 44.36 45.44 46.07 46.83 47.50 47.86 48.12
36.03 36.01 36.01 36.00 35.87 35.81 35.79 35.75 35.76 35.75 35.47 35.49 35.58 35.72 35.76 35.94 35.88 36.16 36.48 36.56 36.13 35.64 35.32 35.38 35.88 36.10 36.22 36.28 36.90 37.75 38.20 37.44 37.21 37.03 36.98 36.88 36.84 36.93 37.07 37.16 37.44 37.56 37.52 37.56 37.65 37.83 37.98 38.11 38.34 38.64 38.73 38.78 38.96 39.27 39.58 39.85 40.38 40.70 40.98 41.43 41.88 42.38 43.01 43.74 44.19 44.68 45.13 45.49 46.03
35.35 35.38 35.33 35.23 35.12 35.11 35.11 35.28 35.01 34.79 34.68 34.64 34.59 34.68 34.73 34.68 34.64 34.86 35.13 35.19 35.27 34.68 34.11 34.29 34.65 34.88 35.01 34.91 35.18 36.22 36.99 36.30 35.81 35.63 35.72 35.81 36.03 36.21 36.44 36.66 36.85 36.90 36.98 36.98 37.11 37.34 37.53 37.89 38.20 38.38 38.69 39.00 39.18 39.41 39.63 39.77 40.26 40.58 40.80 40.94 41.22 41.67 42.08 42.66 42.98 43.48 43.89 44.34 44.74
34.65 34.67 34.57 34.52 34.38 34.29 34.20 34.16 33.89 33.62 33.44 33.51 33.38 33.44 33.53 33.56 33.71 33.93 34.07 34.19 34.29 33.98 33.63 33.75 34.07 34.29 34.38 34.38 34.52 34.95 35.54 36.12 35.27 34.95 35.09 35.31 35.54 35.76 36.03 36.18 36.40 36.45 36.54 36.48 36.67 36.85 37.04 37.49 37.85 38.12 38.39 38.78 39.01 39.14 39.37 39.68 40.04 40.22 40.49 40.94 41.04 41.22 41.50 42.04 42.28 42.65 42.93 43.34 43.74
33.93 33.83 33.77 33.69 33.56 33.33 33.06 32.79 32.58 32.46 32.33 32.31 32.29 32.33 32.46 32.76 33.03 33.08 33.03 33.08 33.23 33.36 33.41 33.48 33.66 33.75 34.01 34.14 34.23 34.28 34.73 36.03 34.95 34.64 34.73 34.97 35.10 35.32 35.55 35.91 35.91 36.09 36.18 36.18 36.28 36.37 36.59 37.13 37.45 37.81 38.13 38.39 38.52 38.75 39.02 39.60 39.87 39.96 40.10 40.77 40.91 40.87 40.92 41.28 41.52 41.80 42.05 42.29 42.66
32.88 32.69 32.51 32.42 32.39 32.34 32.13 31.73 31.75 31.80 31.73 31.71 31.75 31.75 31.84 32.29 32.33 32.18 32.04 32.02 32.51 32.61 32.65 32.87 32.78 32.88 32.92 33.04 33.05 33.28 33.78 34.65 33.75 33.66 33.84 33.89 34.20 34.65 34.97 35.13 34.91 34.95 35.05 35.05 35.38 35.79 36.25 37.07 37.47 37.56 37.78 38.22 38.04 38.35 38.90 39.75 40.21 40.26 40.12 40.07 40.16 40.34 40.48 40.61 40.75 40.93 41.03 41.32 41.52
31.28 31.24 31.15 31.06 31.19 31.66 31.93 31.10 31.02 31.15 31.29 31.41 31.32 31.32 31.53 31.75 31.57 31.31 31.17 31.31 31.80 31.62 31.31 31.52 31.43 31.37 31.25 31.19 31.19 31.52 32.03 32.40 32.42 32.46 32.46 32.31 32.72 32.99 33.21 33.47 33.41 33.56 34.01 34.74 34.90 35.50 36.33 37.34 37.60 37.54 37.48 37.78 38.02 38.51 39.03 39.72 40.14 40.24 40.23 39.85 39.74 39.91 40.13 40.35 40.16 40.07 40.25 40.57 40.88
30.05 30.27 30.44 30.38 29.93 29.90 29.94 30.01 30.41 30.75 30.84 30.79 30.56 30.56 30.65 30.79 30.81 30.65 30.61 30.39 30.38 30.11 30.05 30.56 30.34 30.36 30.36 30.35 30.35 30.45 30.81 31.12 31.61 31.75 31.75 31.75 31.88 31.88 32.13 32.79 32.93 33.11 33.62 34.94 36.71 37.92 38.53 38.87 38.45 38.11 37.95 38.02 38.41 38.79 38.98 39.05 39.11 39.45 39.71 39.57 39.39 39.45 39.70 39.99 39.65 39.83 40.05 39.96 40.45
28.95 29.36 29.50 29.22 28.89 28.93 29.20 29.72 29.94 29.94 29.81 29.59 29.27 29.45 29.65 29.85 29.84 29.68 29.63 29.52 29.38 29.23 29.17 29.29 29.19 29.80 30.44 30.54 30.34 30.25 30.29 30.62 30.98 31.34 31.71 32.00 32.00 32.07 32.33 33.06 33.15 33.77 34.93 36.75 39.15 40.57 41.05 40.93 40.29 39.57 38.99 38.50 38.35 38.39 38.31 38.00 37.93 38.33 38.82 39.03 39.13 39.13 39.08 39.07 39.16 39.37 39.58 39.68 39.89
28.33 28.53 28.44 28.04 28.05 28.41 28.67 28.44 28.40 28.40 28.31 28.08 28.17 28.49 28.71 28.73 28.69 28.51 28.40 28.68 28.81 28.84 28.82 28.96 29.11 30.85 32.06 31.04 30.31 30.05 30.23 30.71 30.89 31.07 31.52 32.42 32.35 32.44 32.83 33.66 34.24 34.71 35.74 37.86 39.67 40.75 41.32 41.79 41.72 41.06 39.95 38.59 38.16 37.99 37.95 37.70 37.73 37.60 37.57 37.64 38.19 38.54 38.61 38.42 38.64 38.83 39.07 39.34 39.43
27.82 27.77 27.37 26.89 27.40 27.56 27.33 26.88 26.93 27.02 27.14 27.19 27.32 27.64 27.82 27.66 27.79 27.64 27.74 28.18 28.38 28.56 28.81 29.14 29.62 31.86 33.21 30.97 30.23 30.07 30.34 30.85 30.90 30.95 31.16 31.66 32.20 32.43 32.83 33.66 34.22 34.91 36.15 38.39 39.71 40.53 41.05 41.49 41.75 41.47 40.58 38.81 37.97 37.67 37.63 37.54 37.37 37.15 37.00 37.02 37.14 37.53 37.84 38.06 38.28 38.50 38.57 38.71 38.96
26.57 26.27 25.94 25.97 26.44 26.37 25.99 25.72 26.04 26.25 26.38 26.54 26.76 27.03 27.19 27.05 26.89 27.11 27.40 27.67 27.89 28.29 28.75 29.23 30.29 31.04 31.15 30.34 30.01 29.84 29.85 30.11 30.72 31.21 31.43 31.39 31.66 31.84 32.25 33.32 33.73 34.96 36.71 38.88 39.61 40.10 40.58 40.94 41.16 41.26 40.80 39.73 38.12 37.49 37.40 37.34 37.28 37.17 37.08 37.11 36.98 36.87 37.02 37.35 37.60 37.89 38.21 38.28 38.47
24.53 24.51 24.68 25.26 25.44 25.44 25.39 25.55 25.80 25.80 25.91 26.23 26.36 26.43 26.61 26.71 26.73 26.82 26.95 27.09 27.38 27.94 28.62 29.29 30.18 30.07 29.57 29.19 29.11 29.04 29.18 29.34 30.18 30.45 30.63 30.86 30.95 31.31 31.80 32.47 32.94 34.57 36.81 38.99 39.26 39.60 39.96 40.27 40.57 40.79 40.76 40.42 39.01 38.44 38.06 37.44 37.11 37.03 37.16 37.32 37.43 37.44 37.46 37.66 37.86 38.01 38.10 38.23 38.41
23.28 23.62 24.21 24.83 24.94 25.26 25.48 25.72 25.62 25.53 25.64 26.12 25.82 25.71 25.81 26.33 26.31 26.44 26.53 26.75 27.20 27.98 28.71 28.87 28.60 28.29 28.03 27.84 28.10 28.29 28.60 29.00 29.44 29.44 29.31 29.45 30.03 30.75 31.69 32.56 32.33 33.71 35.96 38.47 38.92 39.18 39.46 39.77 39.99 40.12 40.25 40.25 39.09 38.33 37.90 37.74 37.32 37.11 36.96 37.16 37.36 37.45 37.59 37.73 37.80 37.85 37.95 38.10 38.22
22.90 23.36 23.97 24.65 24.86 25.17 25.30 25.23 25.05 24.91 24.97 25.11 24.86 25.05 25.39 25.66 25.86 26.13 26.44 26.53 27.18 28.45 29.20 28.38 27.44 27.05 27.02 27.14 27.41 27.73 27.83 28.00 28.08 28.17 28.33 28.60 30.53 31.08 31.08 30.91 30.60 32.47 35.30 37.88 38.30 38.72 39.04 39.31 39.40 39.53 39.66 39.78 38.89 37.91 37.33 37.15 37.02 36.86 36.71 36.62 36.80 36.99 37.10 37.19 37.40 37.51 37.75 37.91 38.12
22.81 23.18 23.70 24.38 24.70 24.86 24.81 24.47 24.25 24.19 24.06 23.98 24.19 24.63 24.97 25.10 25.37 25.59 25.82 26.15 26.80 27.16 27.38 27.04 26.73 26.58 26.66 26.53 26.98 27.16 27.20 27.31 27.40 27.96 28.62 29.18 29.29 29.08 29.19 30.21 29.72 31.74 34.80 37.28 37.86 38.27 38.59 38.89 38.90 39.02 39.23 39.36 38.69 37.54 36.54 36.38 36.48 36.51 36.39 36.43 36.44 36.62 36.86 37.04 37.06 37.35 37.65 37.81 37.93
22.69 23.00 23.48 24.03 24.38 24.41 24.27 23.92 23.71 23.53 23.47 23.63 23.90 24.26 24.52 24.70 24.75 24.85 25.15 25.75 26.20 26.16 26.13 26.42 26.44 26.53 26.63 26.68 26.92 26.92 27.08 27.56 27.71 28.43 29.19 29.39 28.63 28.29 28.58 29.77 29.59 31.92 34.97 36.79 37.33 37.85 38.20 38.38 38.51 38.64 38.86 39.11 38.28 37.11 36.18 36.01 36.15 36.13 36.11 36.16 36.20 36.46 36.72 36.92 37.08 37.26 37.48 37.63 37.83
22.64 22.89 23.35 23.71 23.98 23.98 23.69 23.47 23.07 22.98 23.01 23.20 23.64 23.96 24.08 23.99 24.30 24.71 25.42 26.42 26.38 26.09 25.80 26.13 26.19 26.31 26.45 26.63 26.50 26.54 27.17 29.10 28.29 27.47 26.99 26.90 27.11 27.39 27.88 28.74 29.64 32.30 34.96 36.41 36.94 37.46 37.77 37.96 38.14 38.35 38.53 38.78 37.68 36.62 35.96 35.79 35.68 35.72 35.79 35.86 35.99 36.10 36.32 36.75 37.02 37.17 37.37 37.57 37.81
22.40 22.80 23.13 23.27 23.27 23.07 22.98 22.69 22.34 22.34 22.56 22.93 23.38 23.64 23.73 23.63 24.08 24.57 25.55 27.38 27.78 26.47 25.15 25.05 25.21 25.39 25.48 25.46 25.64 26.19 26.79 27.46 26.85 26.34 26.16 26.39 26.65 27.11 27.65 27.87 28.79 31.71 34.66 36.09 36.55 37.00 37.28 37.59 37.77 38.06 38.15 38.01 36.96 36.08 35.53 35.32 35.29 35.36 35.47 35.65 35.87 36.13 36.44 36.66 36.97 37.20 37.50 37.70 37.94
22.18 22.36 22.63 22.68 22.53 22.49 22.25 22.02 21.76 21.85 22.20 22.65 23.01 23.33 23.42 23.41 23.47 24.05 25.42 28.23 27.51 25.85 24.43 24.36 24.27 24.26 24.34 24.45 24.85 26.00 26.78 25.93 25.80 26.00 26.35 26.84 26.62 26.51 26.50 26.87 27.51 30.56 33.84 35.66 36.10 36.47 36.91 37.13 37.47 37.73 37.72 37.10 36.10 35.48 35.15 35.01 34.92 34.92 35.06 35.27 35.57 35.88 36.22 36.49 36.74 37.07 37.43 37.60 37.87
21.92 22.00 22.18 22.00 22.15 22.04 21.80 21.40 21.31 21.53 21.89 22.25 22.56 23.01 23.36 23.54 23.32 23.60 24.83 27.33 25.31 24.38 24.03 24.18 23.96 23.87 23.94 24.22 24.62 25.20 25.44 25.13 25.40 25.84 26.62 27.51 26.96 26.52 26.41 26.83 26.69 29.10 32.41 34.98 35.58 36.07 36.46 36.88 37.26 37.39 37.12 36.01 35.17 34.81 34.63 34.52 34.46 34.55 34.62 34.69 34.99 35.38 35.68 36.01 36.30 36.67 37.00 37.44 37.77
21.64 21.88 22.18 21.91 21.79 21.64 21.36 20.86 20.95 21.31 21.67 21.98 22.29 22.74 23.14 23.38 23.38 23.69 24.99 27.62 25.01 23.96 23.78 23.78 23.54 23.51 23.73 24.17 24.87 25.06 24.91 24.56 25.44 25.89 26.11 26.21 26.21 26.38 26.65 26.78 26.65 28.44 31.15 34.10 35.12 35.66 36.16 36.63 37.01 37.18 36.71 35.47 34.74 34.38 34.30 34.06 34.02 33.99 34.10 34.30 34.49 34.79 35.04 35.48 35.91 36.32 36.65 37.09 37.92
21.86 21.97 22.01 21.79 21.52 21.28 21.09 20.69 20.91 21.36 21.85 22.20 22.34 22.56 22.76 22.77 23.04 24.10 25.59 27.02 24.50 23.41 23.20 23.14 23.11 23.33 24.08 25.55 26.01 25.67 24.97 24.59 25.17 25.86 26.03 25.46 26.12 27.69 28.66 27.79 27.26 28.21 30.42 33.49 34.63 35.33 35.85 36.35 36.77 37.10 36.81 35.69 34.71 34.27 34.12 33.91 33.63 33.66 33.63 33.82 33.95 34.12 34.47 35.04 35.45 35.88 36.28 36.68 37.96
21.64 21.42 21.07 20.40 20.70 20.84 20.78 20.64 20.95 21.44 22.07 22.47 22.52 22.69 22.92 23.32 24.52 25.72 26.25 25.37 23.59 22.87 22.75 22.82 22.88 23.42 24.70 27.25 26.57 25.51 24.69 24.64 24.47 25.01 25.76 26.25 27.56 29.61 30.59 28.90 27.51 27.82 29.59 32.51 34.03 35.08 35.61 36.19 36.69 37.06 36.81 35.60 34.74 34.27 34.04 33.82 33.45 33.21 33.12 33.34 33.41 33.62 33.97 34.53 35.09 35.53 35.93 36.30 37.27
20.51 20.70 20.84 20.76 20.57 20.61 20.75 20.92 21.31 21.62 22.02 22.43 22.65 23.38 24.54 25.76 25.50 25.06 24.43 23.36 23.11 23.06 23.20 23.55 23.46 23.68 24.62 26.91 26.39 25.32 24.56 24.64 24.77 24.97 25.73 27.23 28.00 29.35 29.86 28.30 27.26 27.07 28.12 30.66 33.25 34.77 35.68 36.19 36.60 37.01 36.87 35.77 34.81 34.32 33.95 33.65 33.04 32.65 32.59 32.88 33.11 33.35 33.58 33.99 34.54 34.95 35.34 35.65 35.97
MSLP
1009.92 1010.10 1010.30 1010.54 1010.82 1011.14 1011.42 1011.60 1011.76 1011.96 1012.08 1012.14 1012.24 1012.32 1012.38 1012.48 1012.60 1012.76 1012.88 1013.02 1013.14 1013.30 1013.38 1013.52 1013.64 1013.64 1013.64 1013.64 1013.70 1013.74 1013.82 1013.92 1014.02 1014.10 1014.14 1014.14 1014.14 1014.10 1014.08 1014.02 1013.98 1013.98 1014.02 1014.02 1014.04 1014.10 1014.14 1014.18 1014.20 1014.24 1014.26 1014.30 1014.32 1014.36 1014.36 1014.38 1014.48 1014.58 1014.64 1014.68 1014.60 1014.54 1014.48 1014.46 1014.36 1014.30 1014.24 1014.18 1014.04
1010.24 1010.32 1010.52 1010.76 1011.04 1011.36 1011.60 1011.80 1011.98 1012.18 1012.30 1012.38 1012.52 1012.64 1012.76 1012.92 1013.10 1013.30 1013.42 1013.48 1013.52 1013.58 1013.64 1013.74 1013.80 1013.82 1013.80 1013.82 1013.88 1013.92 1013.98 1014.08 1014.18 1014.24 1014.26 1014.30 1014.30 1014.30 1014.26 1014.20 1014.18 1014.14 1014.10 1014.08 1014.08 1014.10 1014.14 1014.18 1014.24 1014.26 1014.32 1014.38 1014.46 1014.46 1014.48 1014.52 1014.58 1014.60 1014.68 1014.68 1014.60 1014.54 1014.48 1014.38 1014.26 1014.18 1014.08 1013.96 1013.86
1010.82 1010.92 1011.08 1011.30 1011.58 1011.88 1012.18 1012.42 1012.58 1012.68 1012.74 1012.82 1012.98 1013.14 1013.32 1013.48 1013.64 1013.76 1013.86 1013.92 1013.92 1013.92 1013.96 1014.02 1014.08 1014.10 1014.10 1014.14 1014.14 1014.18 1014.20 1014.30 1014.36 1014.38 1014.42 1014.46 1014.46 1014.48 1014.48 1014.42 1014.36 1014.26 1014.20 1014.18 1014.14 1014.14 1014.14 1014.20 1014.26 1014.30 1014.36 1014.46 1014.52 1014.58 1014.60 1014.60 1014.64 1014.68 1014.64 1014.60 1014.54 1014.52 1014.46 1014.32 1014.20 1014.08 1013.96 1013.82 1013.68
1011.42 1011.54 1011.70 1011.96 1012.20 1012.42 1012.68 1012.92 1013.04 1013.10 1013.20 1013.36 1013.54 1013.74 1013.88 1013.98 1014.04 1014.10 1014.14 1014.18 1014.20 1014.24 1014.26 1014.32 1014.30 1014.30 1014.30 1014.32 1014.32 1014.36 1014.38 1014.42 1014.48 1014.52 1014.54 1014.58 1014.60 1014.60 1014.60 1014.54 1014.48 1014.42 1014.38 1014.32 1014.30 1014.24 1014.20 1014.20 1014.26 1014.32 1014.36 1014.46 1014.48 1014.54 1014.60 1014.68 1014.68 1014.64 1014.58 1014.52 1014.46 1014.38 1014.32 1014.26 1014.14 1014.02 1013.86 1013.74 1013.58
1011.92 1012.04 1012.24 1012.46 1012.70 1012.88 1013.08 1013.20 1013.32 1013.48 1013.68 1013.80 1013.96 1014.08 1014.18 1014.20 1014.24 1014.26 1014.30 1014.30 1014.42 1014.52 1014.52 1014.48 1014.48 1014.48 1014.48 1014.48 1014.52 1014.54 1014.60 1014.64 1014.70 1014.76 1014.82 1014.86 1014.86 1014.80 1014.76 1014.70 1014.70 1014.68 1014.64 1014.58 1014.54 1014.48 1014.46 1014.36 1014.32 1014.30 1014.30 1014.36 1014.46 1014.52 1014.54 1014.58 1014.58 1014.52 1014.46 1014.38 1014.30 1014.24 1014.18 1014.10 1014.02 1013.88 1013.76 1013.68 1013.52
1012.30 1012.42 1012.60 1012.82 1012.98 1013.18 1013.32 1013.52 1013.68 1013.86 1014.02 1014.14 1014.24 1014.32 1014.38 1014.42 1014.42 1014.46 1014.48 1014.54 1014.60 1014.64 1014.60 1014.60 1014.64 1014.70 1014.74 1014.76 1014.80 1014.86 1014.92 1015.02 1015.04 1015.10 1015.14 1015.14 1015.10 1015.08 1015.02 1014.98 1014.92 1014.88 1014.86 1014.82 1014.80 1014.76 1014.70 1014.60 1014.48 1014.38 1014.32 1014.32 1014.36 1014.38 1014.42 1014.48 1014.46 1014.42 1014.36 1014.26 1014.18 1014.10 1014.04 1013.98 1013.88 1013.80 1013.70 1013.60 1013.52
1012.60 1012.74 1012.92 1013.14 1013.30 1013.46 1013.64 1013.86 1014.02 1014.20 1014.32 1014.42 1014.52 1014.58 1014.60 1014.60 1014.60 1014.60 1014.64 1014.68 1014.70 1014.74 1014.76 1014.82 1014.92 1014.98 1014.98 1015.04 1015.10 1015.18 1015.20 1015.26 1015.30 1015.32 1015.32 1015.36 1015.30 1015.26 1015.20 1015.18 1015.10 1015.08 1015.02 1014.98 1014.92 1014.88 1014.82 1014.76 1014.64 1014.54 1014.46 1014.42 1014.36 1014.32 1014.32 1014.32 1014.32 1014.30 1014.24 1014.10 1014.04 1013.98 1013.88 1013.80 1013.70 1013.64 1013.58 1013.52 1013.46
1012.92 1013.08 1013.30 1013.48 1013.64 1013.80 1013.96 1014.10 1014.26 1014.38 1014.52 1014.64 1014.74 1014.80 1014.82 1014.82 1014.82 1014.86 1014.86 1014.88 1014.98 1015.08 1015.14 1015.18 1015.26 1015.26 1015.26 1015.26 1015.32 1015.38 1015.42 1015.46 1015.48 1015.48 1015.52 1015.52 1015.46 1015.42 1015.36 1015.32 1015.26 1015.24 1015.18 1015.14 1015.08 1015.04 1014.98 1014.88 1014.82 1014.74 1014.64 1014.58 1014.46 1014.36 1014.26 1014.26 1014.20 1014.14 1014.04 1013.92 1013.86 1013.76 1013.70 1013.64 1013.58 1013.54 1013.52 1013.46 1013.42
1013.30 1013.48 1013.64 1013.80 1013.92 1014.08 1014.20 1014.32 1014.42 1014.54 1014.70 1014.82 1014.96 1015.02 1015.04 1015.08 1015.08 1015.08 1015.14 1015.24 1015.32 1015.38 1015.42 1015.42 1015.46 1015.46 1015.42 1015.46 1015.48 1015.52 1015.54 1015.58 1015.60 1015.60 1015.60 1015.58 1015.54 1015.54 1015.52 1015.46 1015.42 1015.36 1015.30 1015.24 1015.20 1015.18 1015.10 1015.04 1014.96 1014.88 1014.82 1014.74 1014.68 1014.58 1014.46 1014.32 1014.24 1014.10 1013.98 1013.82 1013.70 1013.64 1013.58 1013.52 1013.48 1013.46 1013.42 1013.38 1013.38
1013.70 1013.82 1013.92 1014.04 1014.24 1014.30 1014.38 1014.52 1014.64 1014.74 1014.88 1015.08 1015.18 1015.26 1015.30 1015.30 1015.32 1015.36 1015.46 1015.54 1015.54 1015.54 1015.58 1015.64 1015.64 1015.60 1015.60 1015.64 1015.68 1015.70 1015.74 1015.76 1015.76 1015.76 1015.74 1015.74 1015.70 1015.68 1015.64 1015.60 1015.54 1015.48 1015.46 1015.38 1015.32 1015.30 1015.26 1015.18 1015.14 1015.10 1015.04 1014.98 1014.88 1014.76 1014.64 1014.58 1014.48 1014.36 1014.18 1013.96 1013.80 1013.68 1013.58 1013.48 1013.46 1013.38 1013.36 1013.30 1013.26
1014.02 1014.14 1014.24 1014.32 1014.48 1014.52 1014.54 1014.68 1014.82 1014.98 1015.10 1015.26 1015.38 1015.46 1015.48 1015.52 1015.60 1015.68 1015.70 1015.74 1015.70 1015.74 1015.82 1015.86 1015.86 1015.86 1015.88 1015.88 1015.96 1015.98 1015.98 1015.98 1015.98 1015.98 1015.98 1015.98 1015.96 1015.88 1015.86 1015.80 1015.76 1015.68 1015.60 1015.58 1015.48 1015.42 1015.38 1015.36 1015.30 1015.26 1015.20 1015.10 1015.04 1014.92 1014.80 1014.70 1014.60 1014.52 1014.32 1014.14 1013.96 1013.82 1013.68 1013.52 1013.46 1013.38 1013.32 1013.24 1013.20
1014.30 1014.42 1014.52 1014.60 1014.70 1014.74 1014.80 1014.92 1015.10 1015.26 1015.42 1015.54 1015.64 1015.68 1015.74 1015.82 1015.88 1015.92 1015.88 1015.88 1015.88 1015.98 1016.04 1016.10 1016.10 1016.14 1016.18 1016.20 1016.24 1016.24 1016.24 1016.26 1016.26 1016.26 1016.24 1016.20 1016.20 1016.14 1016.08 1016.02 1015.96 1015.86 1015.80 1015.74 1015.68 1015.58 1015.52 1015.52 1015.46 1015.38 1015.30 1015.20 1015.14 1015.04 1014.92 1014.80 1014.70 1014.58 1014.38 1014.24 1014.10 1013.96 1013.80 1013.60 1013.52 1013.42 1013.32 1013.24 1013.14
1014.60 1014.70 1014.82 1014.92 1014.98 1015.02 1015.10 1015.26 1015.42 1015.58 1015.74 1015.80 1015.86 1015.96 1016.02 1016.08 1016.14 1016.14 1016.14 1016.14 1016.20 1016.26 1016.32 1016.36 1016.38 1016.42 1016.46 1016.48 1016.48 1016.48 1016.48 1016.46 1016.46 1016.42 1016.42 1016.38 1016.32 1016.26 1016.20 1016.10 1016.04 1015.98 1015.92 1015.82 1015.76 1015.70 1015.64 1015.58 1015.52 1015.46 1015.36 1015.30 1015.20 1015.08 1014.98 1014.86 1014.74 1014.60 1014.48 1014.32 1014.18 1014.04 1013.86 1013.70 1013.54 1013.42 1013.30 1013.20 1013.10
1015.02 1015.10 1015.20 1015.30 1015.32 1015.36 1015.46 1015.60 1015.80 1015.96 1016.08 1016.14 1016.20 1016.26 1016.32 1016.36 1016.38 1016.42 1016.42 1016.48 1016.54 1016.58 1016.60 1016.60 1016.60 1016.60 1016.64 1016.68 1016.64 1016.64 1016.60 1016.58 1016.54 1016.52 1016.46 1016.38 1016.32 1016.30 1016.24 1016.18 1016.10 1016.02 1015.96 1015.86 1015.82 1015.76 1015.68 1015.60 1015.54 1015.46 1015.36 1015.26 1015.18 1015.04 1014.96 1014.86 1014.76 1014.64 1014.52 1014.36 1014.20 1014.08 1013.92 1013.76 1013.60 1013.46 1013.30 1013.18 1013.04
1015.46 1015.54 1015.64 1015.68 1015.70 1015.74 1015.82 1015.98 1016.14 1016.30 1016.38 1016.48 1016.54 1016.58 1016.60 1016.64 1016.68 1016.70 1016.74 1016.74 1016.76 1016.80 1016.80 1016.76 1016.76 1016.76 1016.74 1016.74 1016.70 1016.68 1016.64 1016.58 1016.52 1016.48 1016.42 1016.36 1016.30 1016.26 1016.20 1016.14 1016.08 1015.98 1015.92 1015.86 1015.80 1015.74 1015.68 1015.60 1015.52 1015.42 1015.32 1015.24 1015.10 1014.98 1014.88 1014.82 1014.70 1014.58 1014.48 1014.38 1014.24 1014.10 1013.96 1013.80 1013.64 1013.48 1013.32 1013.18 1013.02
1015.82 1015.92 1015.98 1016.02 1016.04 1016.08 1016.18 1016.30 1016.46 1016.58 1016.68 1016.76 1016.80 1016.82 1016.82 1016.86 1016.88 1016.86 1016.86 1016.88 1016.86 1016.86 1016.82 1016.80 1016.76 1016.74 1016.70 1016.64 1016.60 1016.58 1016.52 1016.46 1016.38 1016.36 1016.32 1016.30 1016.24 1016.18 1016.14 1016.08 1015.98 1015.92 1015.86 1015.76 1015.70 1015.60 1015.58 1015.52 1015.42 1015.32 1015.24 1015.14 1015.02 1014.88 1014.80 1014.70 1014.60 1014.52 1014.38 1014.30 1014.20 1014.08 1013.98 1013.82 1013.68 1013.52 1013.36 1013.20 1013.04
1016.04 1016.14 1016.20 1016.24 1016.26 1016.32 1016.42 1016.52 1016.64 1016.74 1016.82 1016.88 1016.92 1016.96 1016.96 1016.96 1016.96 1016.92 1016.88 1016.92 1016.88 1016.86 1016.82 1016.80 1016.74 1016.70 1016.64 1016.58 1016.54 1016.48 1016.42 1016.38 1016.32 1016.30 1016.26 1016.24 1016.20 1016.14 1016.08 1016.02 1015.92 1015.86 1015.76 1015.68 1015.58 1015.52 1015.42 1015.36 1015.26 1015.20 1015.10 1015.02 1014.88 1014.76 1014.68 1014.54 1014.46 1014.36 1014.26 1014.18 1014.08 1013.98 1013.88 1013.80 1013.68 1013.54 1013.38 1013.24 1013.04
1016.14 1016.24 1016.30 1016.32 1016.36 1016.46 1016.54 1016.64 1016.74 1016.80 1016.86 1016.92 1016.96 1016.98 1016.98 1016.98 1016.98 1016.96 1016.92 1016.92 1016.88 1016.88 1016.86 1016.86 1016.80 1016.74 1016.68 1016.64 1016.60 1016.52 1016.46 1016.42 1016.42 1016.38 1016.36 1016.30 1016.24 1016.18 1016.08 1015.98 1015.88 1015.80 1015.68 1015.58 1015.52 1015.42 1015.30 1015.20 1015.10 1015.02 1014.92 1014.82 1014.74 1014.60 1014.52 1014.38 1014.30 1014.20 1014.10 1014.02 1013.96 1013.88 1013.80 1013.74 1013.64 1013.52 1013.38 1013.24 1013.08
1016.20 1016.30 1016.36 1016.42 1016.46 1016.54 1016.60 1016.68 1016.76 1016.82 1016.88 1016.98 1016.98 1017.02 1017.02 1017.02 1017.02 1017.02 1016.98 1016.96 1016.96 1016.92 1016.92 1016.92 1016.86 1016.80 1016.76 1016.74 1016.70 1016.60 1016.54 1016.48 1016.48 1016.46 1016.38 1016.30 1016.24 1016.14 1016.04 1015.96 1015.86 1015.74 1015.64 1015.52 1015.42 1015.32 1015.20 1015.08 1014.96 1014.86 1014.80 1014.68 1014.58 1014.46 1014.38 1014.30 1014.20 1014.10 1014.02 1013.96 1013.86 1013.80 1013.70 1013.64 1013.54 1013.46 1013.32 1013.20 1013.04
1016.32 1016.42 1016.52 1016.58 1016.60 1016.68 1016.74 1016.80 1016.88 1016.96 1016.98 1017.02 1017.04 1017.04 1017.08 1017.08 1017.04 1017.04 1017.04 1017.02 1017.02 1016.98 1016.96 1016.92 1016.86 1016.82 1016.76 1016.74 1016.68 1016.58 1016.54 1016.48 1016.46 1016.36 1016.30 1016.24 1016.14 1016.04 1015.96 1015.86 1015.76 1015.68 1015.58 1015.46 1015.36 1015.24 1015.14 1015.02 1014.88 1014.80 1014.70 1014.60 1014.52 1014.42 1014.32 1014.26 1014.18 1014.08 1014.02 1013.92 1013.82 1013.76 1013.68 1013.58 1013.46 1013.36 1013.26 1013.14 1012.98
1016.60 1016.70 1016.76 1016.82 1016.82 1016.88 1016.96 1016.98 1017.04 1017.08 1017.10 1017.08 1017.10 1017.14 1017.14 1017.10 1017.08 1017.08 1017.08 1017.08 1017.02 1016.96 1016.88 1016.86 1016.82 1016.76 1016.70 1016.64 1016.58 1016.52 1016.48 1016.42 1016.36 1016.30 1016.24 1016.14 1016.04 1015.98 1015.92 1015.82 1015.74 1015.60 1015.52 1015.42 1015.32 1015.20 1015.10 1015.02 1014.88 1014.80 1014.70 1014.60 1014.54 1014.48 1014.38 1014.26 1014.18 1014.10 1014.02 1013.92 1013.82 1013.74 1013.64 1013.52 1013.42 1013.30 1013.18 1013.08 1012.96
1016.96 1016.98 1017.02 1017.04 1017.08 1017.10 1017.14 1017.18 1017.18 1017.20 1017.20 1017.20 1017.18 1017.18 1017.18 1017.10 1017.10 1017.10 1017.08 1017.04 1016.98 1016.88 1016.82 1016.82 1016.80 1016.74 1016.70 1016.64 1016.58 1016.52 1016.42 1016.32 1016.32 1016.26 1016.24 1016.18 1016.08 1016.02 1015.96 1015.88 1015.80 1015.68 1015.58 1015.48 1015.36 1015.24 1015.10 1015.02 1014.88 1014.82 1014.74 1014.64 1014.58 1014.52 1014.42 1014.30 1014.20 1014.10 1014.02 1013.88 1013.76 1013.68 1013.58 1013.46 1013.36 1013.24 1013.14 1013.02 1012.92
1017.24 1017.26 1017.26 1017.26 1017.30 1017.30 1017.30 1017.32 1017.30 1017.30 1017.26 1017.24 1017.24 1017.24 1017.20 1017.18 1017.18 1017.10 1017.04 1017.02 1016.96 1016.92 1016.88 1016.88 1016.82 1016.80 1016.76 1016.74 1016.68 1016.60 1016.52 1016.42 1016.36 1016.32 1016.30 1016.30 1016.20 1016.14 1016.08 1015.98 1015.92 1015.82 1015.70 1015.60 1015.48 1015.32 1015.18 1015.02 1014.92 1014.82 1014.76 1014.68 1014.58 1014.52 1014.42 1014.30 1014.20 1014.08 1013.96 1013.80 1013.70 1013.58 1013.46 1013.36 1013.26 1013.18 1013.04 1012.92 1012.82
1017.38 1017.38 1017.38 1017.36 1017.38 1017.38 1017.38 1017.36 1017.32 1017.30 1017.26 1017.30 1017.30 1017.26 1017.24 1017.20 1017.18 1017.14 1017.08 1017.08 1017.04 1017.02 1017.02 1017.02 1016.96 1016.92 1016.88 1016.86 1016.80 1016.76 1016.74 1016.64 1016.54 1016.48 1016.42 1016.36 1016.30 1016.24 1016.18 1016.10 1016.02 1015.92 1015.82 1015.70 1015.54 1015.42 1015.26 1015.08 1014.92 1014.80 1014.70 1014.64 1014.54 1014.46 1014.36 1014.26 1014.18 1014.04 1013.88 1013.74 1013.60 1013.46 1013.32 1013.20 1013.10 1013.04 1012.92 1012.82 1012.74
1017.46 1017.42 1017.42 1017.42 1017.42 1017.38 1017.36 1017.32 1017.36 1017.36 1017.38 1017.42 1017.38 1017.36 1017.32 1017.32 1017.32 1017.30 1017.26 1017.24 1017.24 1017.20 1017.18 1017.18 1017.10 1017.04 1016.98 1016.96 1016.92 1016.88 1016.86 1016.82 1016.76 1016.70 1016.58 1016.48 1016.42 1016.36 1016.26 1016.18 1016.08 1015.98 1015.86 1015.70 1015.52 1015.32 1015.20 1015.08 1014.96 1014.80 1014.68 1014.58 1014.48 1014.38 1014.26 1014.14 1014.08 1013.96 1013.82 1013.70 1013.54 1013.36 1013.20 1013.08 1012.96 1012.88 1012.80 1012.70 1012.60
1017.46 1017.46 1017.46 1017.48 1017.46 1017.46 1017.46 1017.48 1017.54 1017.58 1017.58 1017.58 1017.58 1017.54 1017.54 1017.52 1017.52 1017.48 1017.48 1017.48 1017.46 1017.42 1017.36 1017.32 1017.26 1017.20 1017.14 1017.10 1017.04 1017.04 1016.98 1016.92 1016.88 1016.82 1016.74 1016.60 1016.48 1016.38 1016.32 1016.24 1016.14 1016.02 1015.88 1015.70 1015.48 1015.30 1015.14 1015.02 1014.86 1014.76 1014.68 1014.58 1014.42 1014.30 1014.18 1014.08 1013.96 1013.86 1013.76 1013.64 1013.48 1013.36 1013.20 1013.04 1012.86 1012.76 1012.68 1012.60 1012.48
1017.54 1017.58 1017.64 1017.64 1017.64 1017.68 1017.74 1017.80 1017.80 1017.80 1017.80 1017.80 1017.80 1017.80 1017.80 1017.80 1017.74 1017.70 1017.70 1017.70 1017.68 1017.60 1017.54 1017.48 1017.46 1017.36 1017.30 1017.24 1017.20 1017.14 1017.08 1016.98 1016.92 1016.86 1016.80 1016.68 1016.58 1016.46 1016.32 1016.26 1016.14 1016.02 1015.86 1015.68 1015.46 1015.26 1015.10 1014.98 1014.82 1014.70 1014.60 1014.52 1014.38 1014.30 1014.18 1014.04 1013.86 1013.76 1013.68 1013.54 1013.46 1013.32 1013.18 1013.04 1012.88 1012.74 1012.60 1012.48 1012.38
1017.82 1017.88 1017.88 1017.88 1017.92 1018.02 1018.04 1018.02 1018.02 1018.04 1018.08 1018.08 1018.04 1018.04 1018.02 1017.96 1017.92 1017.92 1017.88 1017.86 1017.80 1017.70 1017.64 1017.58 1017.52 1017.46 1017.38 1017.30 1017.30 1017.24 1017.18 1017.04 1016.96 1016.82 1016.76 1016.70 1016.58 1016.46 1016.32 1016.24 1016.10 1015.98 1015.82 1015.64 1015.46 1015.26 1015.10 1014.96 1014.80 1014.68 1014.58 1014.48 1014.38 1014.26 1014.14 1014.02 1013.86 1013.74 1013.58 1013.48 1013.38 1013.26 1013.14 1013.04 1012.88 1012.76 1012.60 1012.46 1012.30
1018.18 1018.18 1018.20 1018.20 1018.26 1018.30 1018.26 1018.26 1018.26 1018.26 1018.30 1018.26 1018.26 1018.20 1018.14 1018.10 1018.08 1018.04 1018.02 1017.96 1017.86 1017.80 1017.74 1017.68 1017.54 1017.46 1017.42 1017.38 1017.30 1017.24 1017.14 1017.04 1016.96 1016.86 1016.76 1016.68 1016.54 1016.46 1016.32 1016.20 1016.08 1015.96 1015.80 1015.60 1015.42 1015.24 1015.08 1014.92 1014.76 1014.60 1014.48 1014.42 1014.32 1014.24 1014.08 1013.98 1013.82 1013.70 1013.54 1013.46 1013.32 1013.20 1013.10 1013.02 1012.86 1012.74 1012.58 1012.42 1012.24
1018.46 1018.46 1018.48 1018.52 1018.52 1018.52 1018.52 1018.52 1018.48 1018.46 1018.42 1018.38 1018.32 1018.30 1018.24 1018.20 1018.14 1018.10 1018.04 1017.98 1017.88 1017.82 1017.76 1017.68 1017.54 1017.52 1017.48 1017.42 1017.30 1017.20 1017.14 1017.04 1016.96 1016.86 1016.80 1016.70 1016.60 1016.46 1016.30 1016.20 1016.08 1015.96 1015.80 1015.60 1015.42 1015.20 1015.04 1014.88 1014.74 1014.58 1014.46 1014.38 1014.30 1014.18 1014.04 1013.88 1013.74 1013.60 1013.48 1013.38 1013.30 1013.18 1013.04 1012.92 1012.76 1012.60 1012.48 1012.32 1012.18
1018.68 1018.68 1018.68 1018.68 1018.70 1018.68 1018.68 1018.64 1018.58 1018.54 1018.52 1018.46 1018.38 1018.36 1018.30 1018.26 1018.20 1018.14 1018.08 1018.02 1017.92 1017.76 1017.68 1017.64 1017.60 1017.58 1017.52 1017.42 1017.32 1017.26 1017.20 1017.08 1016.98 1016.92 1016.86 1016.76 1016.60 1016.48 1016.36 1016.24 1016.14 1015.98 1015.80 1015.60 1015.38 1015.18 1015.02 1014.82 1014.70 1014.54 1014.42 1014.30 1014.20 1014.10 1013.98 1013.80 1013.70 1013.58 1013.46 1013.30 1013.20 1013.08 1012.98 1012.82 1012.70 1012.54 1012.38 1012.24 1012.10
1018.82 1018.82 1018.82 1018.80 1018.82 1018.80 1018.74 1018.70 1018.64 1018.60 1018.54 1018.52 1018.42 1018.38 1018.36 1018.32 1018.24 1018.18 1018.08 1018.02 1017.92 1017.80 1017.70 1017.68 1017.68 1017.60 1017.52 1017.46 1017.36 1017.30 1017.24 1017.14 1017.08 1016.98 1016.88 1016.80 1016.68 1016.54 1016.38 1016.26 1016.18 1016.02 1015.82 1015.54 1015.32 1015.14 1014.96 1014.76 1014.64 1014.48 1014.36 1014.20 1014.08 1013.98 1013.86 1013.74 1013.64 1013.52 1013.38 1013.24 1013.10 1013.02 1012.88 1012.74 1012.58 1012.42 1012.26 1012.14 1012.02
1018.96 1018.92 1018.92 1018.92 1018.88 1018.86 1018.80 1018.74 1018.64 1018.60 1018.54 1018.52 1018.48 1018.48 1018.42 1018.36 1018.30 1018.20 1018.10 1018.04 1017.98 1017.92 1017.88 1017.82 1017.80 1017.74 1017.64 1017.54 1017.42 1017.32 1017.26 1017.20 1017.10 1016.98 1016.88 1016.80 1016.68 1016.54 1016.38 1016.24 1016.14 1015.98 1015.74 1015.48 1015.26 1015.08 1014.86 1014.70 1014.54 1014.38 1014.20 1014.08 1013.96 1013.86 1013.80 1013.68 1013.54 1013.42 1013.26 1013.10 1012.98 1012.88 1012.76 1012.64 1012.48 1012.30 1012.14 1012.02 1011.86
1019.04 1019.02 1018.98 1018.98 1018.92 1018.88 1018.82 1018.76 1018.74 1018.70 1018.68 1018.64 1018.60 1018.58 1018.54 1018.52 1018.42 1018.32 1018.20 1018.10 1018.08 1018.04 1018.02 1017.96 1017.88 1017.82 1017.74 1017.68 1017.54 1017.46 1017.30 1017.18 1017.08 1016.98 1016.88 1016.76 1016.68 1016.52 1016.36 1016.20 1016.08 1015.88 1015.68 1015.42 1015.20 1014.98 1014.80 1014.60 1014.46 1014.26 1014.10 1013.96 1013.82 1013.74 1013.68 1013.54 1013.38 1013.24 1013.10 1012.92 1012.76 1012.64 1012.54 1012.38 1012.26 1012.10 1011.96 1011.80 1011.64
1019.14 1019.10 1019.08 1019.04 1019.02 1018.98 1018.96 1018.92 1018.86 1018.86 1018.86 1018.82 1018.80 1018.74 1018.68 1018.68 1018.58 1018.48 1018.36 1018.20 1018.14 1018.14 1018.10 1018.04 1017.98 1017.88 1017.80 1017.68 1017.58 1017.48 1017.32 1017.18 1017.04 1016.96 1016.86 1016.70 1016.58 1016.42 1016.26 1016.10 1015.92 1015.76 1015.54 1015.32 1015.08 1014.88 1014.70 1014.52 1014.32 1014.14 1013.98 1013.82 1013.74 1013.64 1013.52 1013.36 1013.20 1013.04 1012.86 1012.70 1012.54 1012.38 1012.30 1012.18 1012.02 1011.86 1011.70 1011.54 1011.42
1019.26 1019.26 1019.24 1019.20 1019.18 1019.14 1019.10 1019.08 1019.08 1019.08 1019.04 1019.04 1019.02 1018.92 1018.82 1018.80 1018.68 1018.58 1018.46 1018.30 1018.24 1018.20 1018.18 1018.08 1018.02 1017.92 1017.80 1017.68 1017.54 1017.42 1017.30 1017.14 1017.02 1016.86 1016.74 1016.58 1016.48 1016.30 1016.14 1015.96 1015.76 1015.58 1015.38 1015.20 1014.98 1014.76 1014.54 1014.38 1014.20 1013.98 1013.82 1013.70 1013.58 1013.48 1013.32 1013.18 1013.02 1012.82 1012.68 1012.52 1012.36 1012.20 1012.08 1011.96 1011.80 1011.60 1011.46 1011.32 1011.20
1019.38 1019.38 1019.38 1019.38 1019.36 1019.32 1019.30 1019.26 1019.26 1019.26 1019.24 1019.20 1019.14 1019.04 1018.96 1018.82 1018.70 1018.60 1018.48 1018.32 1018.32 1018.26 1018.18 1018.08 1017.98 1017.88 1017.76 1017.64 1017.48 1017.36 1017.20 1017.08 1016.96 1016.76 1016.60 1016.48 1016.32 1016.18 1015.98 1015.80 1015.64 1015.46 1015.30 1015.08 1014.86 1014.64 1014.46 1014.26 1014.08 1013.88 1013.74 1013.60 1013.46 1013.30 1013.14 1012.98 1012.82 1012.64 1012.46 1012.32 1012.18 1012.04 1011.88 1011.76 1011.60 1011.42 1011.26 1011.10 1010.96
1019.52 1019.52 1019.52 1019.52 1019.48 1019.46 1019.46 1019.42 1019.42 1019.38 1019.36 1019.26 1019.18 1019.08 1018.96 1018.80 1018.70 1018.60 1018.46 1018.30 1018.30 1018.26 1018.18 1018.04 1017.96 1017.82 1017.68 1017.52 1017.36 1017.20 1017.04 1016.96 1016.82 1016.68 1016.52 1016.38 1016.24 1016.08 1015.88 1015.64 1015.46 1015.32 1015.18 1014.96 1014.74 1014.52 1014.32 1014.14 1013.96 1013.80 1013.64 1013.52 1013.32 1013.18 1012.98 1012.82 1012.68 1012.48 1012.32 1012.18 1011.98 1011.82 1011.70 1011.60 1011.42 1011.24 1011.04 1010.88 1010.76
1019.60 1019.58 1019.60 1019.60 1019.60 1019.58 1019.54 1019.54 1019.52 1019.46 1019.32 1019.24 1019.10 1019.02 1018.88 1018.76 1018.64 1018.52 1018.38 1018.26 1018.24 1018.20 1018.14 1018.02 1017.86 1017.70 1017.54 1017.38 1017.24 1017.04 1016.92 1016.80 1016.68 1016.54 1016.38 1016.26 1016.08 1015.88 1015.70 1015.52 1015.30 1015.14 1015.02 1014.82 1014.60 1014.42 1014.20 1014.02 1013.86 1013.68 1013.52 1013.38 1013.20 1013.02 1012.86 1012.70 1012.52 1012.32 1012.20 1012.04 1011.82 1011.64 1011.48 1011.36 1011.24 1011.04 1010.82 1010.64 1010.52
1019.68 1019.64 1019.68 1019.68 1019.64 1019.60 1019.60 1019.54 1019.52 1019.38 1019.26 1019.18 1019.08 1018.96 1018.82 1018.70 1018.52 1018.38 1018.30 1018.20 1018.18 1018.10 1017.98 1017.86 1017.74 1017.58 1017.38 1017.24 1017.08 1016.92 1016.74 1016.58 1016.48 1016.36 1016.20 1016.08 1015.88 1015.68 1015.48 1015.36 1015.18 1015.02 1014.86 1014.68 1014.48 1014.30 1014.08 1013.88 1013.70 1013.54 1013.36 1013.20 1013.08 1012.88 1012.74 1012.58 1012.36 1012.18 1012.02 1011.86 1011.70 1011.48 1011.26 1011.10 1011.02 1010.86 1010.64 1010.42 1010.26
1019.70 1019.70 1019.70 1019.68 1019.64 1019.60 1019.58 1019.52 1019.42 1019.30 1019.18 1019.08 1018.98 1018.82 1018.68 1018.48 1018.38 1018.30 1018.20 1018.14 1018.04 1017.96 1017.82 1017.70 1017.54 1017.38 1017.24 1017.08 1016.92 1016.76 1016.58 1016.38 1016.24 1016.14 1015.98 1015.82 1015.68 1015.52 1015.36 1015.20 1015.02 1014.82 1014.68 1014.52 1014.32 1014.10 1013.88 1013.70 1013.52 1013.36 1013.20 1013.04 1012.88 1012.74 1012.60 1012.46 1012.24 1012.02 1011.82 1011.68 1011.52 1011.32 1011.10 1010.88 1010.70 1010.58 1010.46 1010.26 1010.10
Wind_Speed
5 5 4 4 3 3 3 3 3 3 2 2 1 1 1 1 1 1 1 1 1 1 1 1 1 2 3 4 3 3 2 2 2 2 2 3 4 4 4 3 3 2 2 2 2 2 2 2 2 2 2 2 2 3 2 2 2 3 4 5 5 5 6 8 8 8 8 8 7
8 7 6 5 4 4 3 3 3 4 4 5 5 5 5 5 5 5 5 5 5 4 4 4 5 6 7 7 6 6 5 5 5 4 4 5 5 5 5 5 5 4 3 3 2 2 2 2 2 2 2 2 2 3 3 2 3 3 5 6 5 5 5 6 6 7 7 7 6
12 12 11 10 9 9 8 7 8 9 9 9 8 8 8 7 7 6 6 6 7 6 6 5 6 7 8 8 7 6 6 6 6 6 5 5 5 5 5 5 5 5 5 4 3 2 2 2 3 2 2 2 2 3 3 3 3 4 5 6 4 4 4 4 5 5 5 5 5
13 13 13 13 13 12 10 8 9 9 9 8 8 8 7 6 6 5 6 6 7 7 6 5 5 6 7 7 7 7 7 7 7 7 6 6 6 6 6 6 6 6 6 6 6 5 4 3 2 3 3 3 3 3 3 3 3 4 4 4 4 4 4 4 4 4 4 4 5
13 12 12 12 13 11 10 9 9 9 8 7 6 6 5 5 5 5 5 6 6 6 6 6 6 6 7 8 9 9 9 9 8 7 7 7 7 6 6 6 6 6 6 6 7 7 6 5 3 2 3 3 3 3 3 4 4 4 4 3 3 3 3 3 3 3 4 4 4
12 12 12 12 12 11 10 10 10 9 8 7 7 7 6 5 5 6 6 6 6 7 8 9 8 8 8 8 9 8 8 7 7 6 6 6 6 6 6 6 6 5 5 5 5 5 6 6 4 3 2 2 3 3 4 4 5 5 5 4 4 3 3 3 3 3 3 4 5
13 13 13 13 13 12 11 10 10 9 9 8 9 9 8 7 8 8 8 7 7 7 8 8 8 8 8 8 7 7 7 6 6 6 6 5 5 6 6 6 6 5 5 5 4 4 4 4 3 3 3 3 3 3 4 5 5 5 6 6 5 4 4 4 3 3 4 5 6
14 14 14 13 13 13 12 11 10 9 9 9 10 10 10 10 10 9 9 8 8 7 7 7 8 8 8 7 7 7 7 6 6 5 5 5 5 5 5 5 6 6 5 5 5 5 5 3 3 3 3 3 3 3 4 4 5 6 6 6 5 4 3 4 3 3 4 5 6
13 13 13 13 13 13 13 12 12 11 11 10 11 11 11 10 10 10 9 8 7 7 7 7 8 8 8 8 8 7 7 6 6 6 6 6 6 6 6 5 5 6 5 5 5 5 5 3 3 3 3 4 4 5 6 7 7 7 7 6 5 4 4 4 4 4 5 5 6
12 12 12 12 12 12 12 12 12 13 12 12 11 11 11 11 10 9 8 7 7 7 8 7 8 8 9 8 8 7 6 6 6 6 6 6 6 6 6 5 6 5 5 5 4 4 4 3 3 4 4 4 4 5 6 7 8 9 8 6 6 6 6 5 5 6 6 6 7
12 11 11 10 11 11 11 12 12 12 12 11 11 11 11 11 10 9 7 7 7 8 8 7 8 8 8 7 7 6 6 5 5 5 5 6 6 6 5 5 5 5 5 4 4 3 3 3 3 3 4 4 4 5 5 6 6 7 8 7 8 8 8 7 7 7 7 7 8
12 11 11 10 10 11 11 11 11 11 11 11 10 10 10 9 9 8 8 8 8 8 7 7 7 7 7 6 6 5 5 4 4 4 4 4 4 4 4 4 4 4 4 4 3 3 2 2 2 3 3 4 3 4 4 5 5 6 7 7 8 8 8 8 8 7 6 7 8
12 11 11 10 11 11 11 11 10 10 10 10 10 9 8 8 8 8 7 8 7 6 5 5 5 5 5 5 4 4 4 3 3 3 3 3 3 3 3 3 4 4 4 3 3 2 2 2 3 3 3 4 3 3 4 4 5 5 6 7 7 8 8 9 8 7 7 7 8
12 12 11 10 10 11 11 10 9 9 9 9 8 8 7 6 7 7 6 6 6 5 4 4 4 4 4 3 3 3 3 3 3 3 3 3 3 3 3 3 4 4 4 3 3 3 3 3 3 3 4 4 4 4 4 4 4 4 5 6 7 8 8 8 8 8 8 8 8
12 11 11 10 10 10 9 9 8 8 8 8 7 6 6 5 6 6 5 5 5 4 4 3 3 3 3 3 3 3 3 3 3 4 4 4 4 4 4 4 4 4 4 4 3 3 3 3 3 4 4 4 5 5 4 4 4 4 5 5 6 7 8 8 8 8 8 8 8
11 11 10 10 10 9 9 8 7 7 7 6 6 5 5 4 4 5 5 5 4 4 4 4 3 3 4 4 4 4 4 4 4 5 5 5 5 5 5 5 5 5 5 5 4 4 3 3 4 4 4 5 5 5 5 5 5 5 5 5 6 6 7 8 8 9 9 9 9
11 10 10 10 10 10 9 8 6 6 6 6 5 5 5 4 4 4 5 5 4 4 4 5 4 4 4 5 4 4 5 5 5 6 6 6 6 6 6 6 6 6 6 5 5 5 5 5 5 4 5 5 5 5 5 5 5 5 5 6 6 6 7 7 8 8 9 9 9
11 10 10 10 10 10 9 8 7 7 6 6 6 5 5 4 4 5 5 5 5 5 5 5 4 4 4 5 5 5 5 5 5 6 5 6 6 6 6 6 6 6 6 6 6 6 6 6 6 5 5 5 5 5 6 6 6 6 6 6 6 6 6 7 7 7 8 9 9
11 10 10 10 10 10 9 9 8 7 6 6 5 5 5 5 5 5 5 5 5 5 5 5 5 4 4 5 4 4 5 4 5 5 5 5 5 5 6 6 6 6 6 6 6 6 6 7 7 6 6 6 6 6 6 6 6 7 7 7 7 7 7 7 7 7 8 9 9
11 10 10 10 9 9 8 8 7 6 6 5 5 6 6 5 5 6 6 5 5 5 5 5 5 5 5 5 5 5 5 4 5 5 5 5 6 6 6 7 7 7 6 6 6 7 7 7 7 7 7 7 7 7 7 7 7 7 7 7 7 7 7 7 8 8 8 9 9
10 9 9 8 8 8 7 6 6 5 5 5 6 6 6 6 6 6 6 5 5 5 5 5 6 6 6 6 6 6 5 5 5 6 6 6 7 7 7 7 7 7 7 7 7 7 7 7 7 7 7 7 7 7 7 7 7 7 7 7 7 7 8 8 8 8 8 9 9
8 7 7 7 7 6 6 5 5 5 5 5 6 6 6 6 6 6 5 5 5 6 6 6 6 7 7 7 7 6 6 6 5 6 6 6 6 7 7 7 7 7 7 7 7 7 7 7 7 7 7 7 7 7 7 7 8 8 8 8 8 8 8 8 8 8 8 8 9
6 5 5 5 5 5 5 5 5 5 6 6 6 6 6 7 6 6 6 6 6 6 6 6 6 6 6 6 6 6 6 7 6 6 6 6 6 6 7 6 7 7 7 6 6 7 7 7 7 7 7 6 7 7 7 8 8 9 9 9 9 9 9 8 8 8 8 8 8
5 5 4 4 5 5 5 5 6 7 7 7 7 7 7 7 7 7 7 8 8 7 7 6 5 5 5 5 5 6 6 6 7 7 7 7 6 6 6 6 6 6 6 5 7 8 9 8 7 7 7 6 7 7 7 7 8 8 9 10 10 10 10 9 9 8 8 8 8
6 5 5 5 5 6 7 7 8 8 8 8 7 7 7 7 7 7 7 8 8 7 7 6 5 5 5 5 5 5 5 5 7 7 7 7 7 7 6 6 5 5 5 6 11 14 15 13 11 9 8 7 7 7 7 7 8 8 9 10 11 11 11 11 10 9 9 9 9
6 7 7 7 7 8 9 9 9 8 8 7 7 7 7 6 6 6 7 7 7 6 6 5 5 5 5 5 5 5 5 5 6 6 7 7 8 7 6 6 5 5 6 9 14 17 18 18 16 14 11 8 7 8 8 8 8 9 9 9 10 11 11 12 11 11 10 10 10
8 8 8 8 9 9 9 8 8 7 7 7 8 7 7 6 6 6 6 6 6 5 5 4 4 5 5 4 5 5 5 5 5 6 6 7 7 7 7 6 5 5 7 12 16 18 18 18 18 17 14 9 8 8 8 8 9 9 9 9 9 10 11 12 13 13 12 12 11
8 8 8 9 9 8 8 7 7 8 7 7 6 6 6 6 6 6 6 5 5 5 4 4 4 4 4 4 4 5 5 5 5 5 6 6 7 7 7 6 6 7 10 15 17 18 18 18 18 18 17 13 9 8 8 9 9 9 9 9 9 9 10 10 11 12 13 13 13
6 6 7 8 7 7 6 7 7 6 6 5 5 5 5 6 6 5 5 5 5 5 4 4 3 3 4 4 5 5 5 5 5 5 6 6 7 7 7 7 7 9 12 17 18 18 18 18 18 18 18 17 11 9 8 8 8 8 8 8 9 9 10 10 10 11 12 13 13
5 5 6 6 6 6 5 5 5 5 5 4 5 5 5 6 6 6 5 5 5 4 4 4 3 4 4 5 5 5 5 5 5 5 6 7 7 7 8 8 7 9 12 16 18 18 18 18 18 18 18 18 14 10 8 9 9 8 8 8 9 10 11 11 12 12 12 12 13
4 4 4 5 5 5 5 4 4 4 4 4 5 5 5 6 6 6 5 5 4 4 4 4 4 4 5 5 5 5 5 6 6 6 6 7 8 8 8 8 8 9 12 16 17 18 18 18 18 18 18 19 14 11 8 9 9 9 8 9 10 11 11 11 12 12 12 13 13
3 3 4 4 5 5 4 4 4 4 5 5 5 6 6 6 5 5 5 5 5 5 5 4 5 5 5 5 5 5 5 6 6 6 6 7 7 7 7 8 8 9 12 16 17 18 18 18 18 18 18 19 15 11 9 9 9 9 9 10 11 12 12 11 11 12 13 13 13
3 3 4 4 4 4 4 5 5 5 5 6 6 6 6 5 5 5 5 5 4 4 4 4 5 5 5 6 5 5 6 6 6 7 7 7 7 7 7 7 7 9 12 16 17 18 18 18 18 18 19 19 14 10 8 8 8 8 9 9 10 11 11 12 12 12 13 13 13
3 4 4 4 4 5 5 5 5 6 6 6 6 6 6 5 6 6 5 4 3 3 3 3 3 4 4 4 4 5 6 6 6 6 6 6 7 7 7 6 6 9 13 16 17 18 18 18 18 18 19 18 12 9 7 8 8 8 9 10 10 10 10 11 12 12 13 13 12
3 4 4 5 5 5 5 5 6 6 6 6 6 6 5 4 5 5 4 4 3 2 2 3 3 3 3 3 4 4 5 6 6 6 6 6 7 7 7 7 6 9 14 16 17 17 18 18 18 18 18 16 10 8 8 9 9 9 10 10 10 10 11 11 11 12 12 12 12
3 4 4 4 5 5 5 5 5 5 5 5 5 5 5 4 4 4 4 4 3 3 3 3 3 3 3 4 4 4 5 6 6 6 7 7 7 7 7 7 7 9 13 16 17 17 18 18 18 18 17 13 9 7 7 8 8 9 9 10 10 10 11 11 11 11 11 11 11
3 3 3 3 4 4 4 4 4 4 4 5 4 4 4 4 4 3 3 3 3 3 3 3 3 3 4 4 4 5 5 5 6 6 7 7 7 7 8 8 7 9 12 15 17 17 18 18 18 18 16 11 8 8 8 8 8 8 9 10 10 11 11 11 11 11 11 11 12
2 2 2 2 3 3 3 3 3 3 4 4 4 3 3 3 3 3 3 2 2 3 3 3 4 4 4 5 5 6 6 6 6 6 7 7 7 7 8 8 8 8 10 14 16 18 18 18 18 18 16 11 9 8 8 8 8 8 9 9 10 10 10 9 9 9 10 12 13
3 2 1 2 2 3 3 3 3 4 4 4 4 4 3 3 3 3 3 2 2 3 3 4 4 5 5 6 6 6 6 6 6 6 6 7 7 8 9 9 8 8 10 14 16 17 18 18 18 18 17 12 10 8 7 7 8 9 9 9 9 10 10 9 9 9 10 12 15
3 2 2 2 3 3 3 3 4 4 4 4 4 4 4 3 3 3 3 3 3 3 3 4 5 5 6 7 7 7 6 6 6 6 6 7 8 10 11 9 9 9 10 13 16 17 18 18 19 19 17 12 9 8 7 7 8 9 9 9 9 9 10 9 9 9 9 11 13
3 2 2 3 3 3 4 5 5 5 4 4 4 4 4 3 3 3 3 3 3 3 3 4 5 6 6 6 6 6 7 7 7 7 7 7 8 9 10 9 9 9 9 11 15 17 18 19 19 19 18 13 10 8 7 7 8 10 10 10 10 9 9 10 9 9 9 10 10
Wind_Direction
97 102 107 111 126 143 159 173 179 186 189 182 161 150 142 130 111 87 73 78 120 140 139 115 55 52 56 54 52 50 46 38 25 11 2 1 356 346 337 329 321 307 285 266 261 262 267 268 267 267 268 271 273 275 275 272 271 273 273 271 269 264 258 253 250 246 243 241 240
59 65 71 75 83 86 81 64 55 55 56 54 52 51 51 54 56 53 49 46 49 54 57 57 49 48 49 47 46 46 47 45 41 36 31 25 15 4 353 345 339 331 321 303 282 268 263 261 257 253 251 254 258 261 262 261 257 260 263 264 268 269 266 261 257 252 249 246 245
54 55 57 59 62 63 61 55 52 52 52 52 50 50 51 53 56 56 54 50 49 50 51 51 50 50 52 53 52 51 50 48 45 43 39 33 24 16 10 3 358 352 345 333 317 292 262 244 245 244 242 237 238 245 253 256 251 254 257 259 261 265 269 272 271 269 265 262 257
64 65 66 66 67 69 70 70 67 63 61 60 59 59 60 60 63 64 63 60 55 54 53 53 52 51 50 51 49 46 43 40 39 37 33 26 20 16 13 12 11 7 1 354 343 329 308 275 251 239 235 233 240 250 257 257 253 253 254 252 253 255 260 268 275 280 282 282 276
68 70 72 74 74 74 73 72 70 68 66 66 66 66 65 63 64 65 65 62 59 55 53 51 50 47 44 44 43 41 37 34 33 32 28 22 16 13 13 16 15 12 8 3 356 346 335 321 296 258 233 227 237 247 252 254 257 259 260 255 252 252 255 263 270 278 285 290 290
73 73 74 75 75 75 73 70 70 69 69 68 68 69 68 65 64 63 62 62 57 53 50 48 46 44 42 42 41 39 36 32 31 29 27 22 16 13 13 14 14 13 11 7 1 353 345 336 325 307 284 261 251 247 247 249 259 265 267 265 258 255 256 259 265 273 281 288 292
74 74 74 74 74 75 75 74 74 74 72 70 67 65 64 62 61 60 59 57 52 48 45 45 43 42 42 43 42 41 37 33 31 29 27 24 18 15 14 12 11 9 7 2 359 354 350 344 338 328 318 307 284 260 249 246 250 256 261 263 257 253 252 257 263 272 279 285 289
74 74 75 75 76 76 77 76 76 75 72 68 64 62 60 59 58 57 56 53 50 48 46 45 43 42 44 44 43 40 37 33 29 27 25 24 19 16 13 11 10 6 2 360 359 359 357 352 345 337 331 322 313 300 288 275 266 261 259 258 255 250 247 253 262 270 276 281 286
73 73 74 75 75 76 76 74 73 72 70 66 62 59 57 56 55 55 54 53 50 48 47 45 42 41 41 41 39 37 33 29 25 23 21 20 17 14 11 9 7 3 359 357 358 358 357 355 350 345 341 336 330 327 324 320 310 299 288 278 274 269 264 262 264 265 267 269 274
72 72 72 72 72 73 74 72 69 68 67 64 60 57 55 53 52 51 51 52 50 48 45 41 39 38 37 36 33 30 26 23 21 19 18 17 14 10 7 6 3 359 354 351 353 354 354 353 348 343 338 334 329 327 326 326 320 315 309 303 300 293 285 277 271 267 264 263 262
70 69 69 69 69 69 70 68 65 63 62 61 57 55 52 50 49 47 46 47 47 44 41 37 37 36 35 32 27 23 21 20 18 18 17 16 11 7 4 2 359 355 349 345 346 348 350 350 344 335 328 323 321 319 319 319 316 314 310 306 304 300 293 285 278 273 269 265 260
67 66 65 65 65 65 66 65 62 59 57 56 54 52 49 47 44 42 41 42 42 39 35 32 35 35 34 30 24 21 20 20 19 19 19 17 11 6 3 2 358 353 347 342 340 341 342 340 333 326 321 315 314 312 312 313 311 309 307 306 304 301 297 292 285 278 272 268 264
64 63 62 61 62 63 64 63 61 58 54 53 51 49 46 43 40 39 40 40 40 37 31 28 34 36 35 30 24 21 21 23 24 25 26 23 16 11 7 6 2 357 351 344 340 338 336 333 327 323 320 316 312 308 306 305 305 305 305 306 306 304 300 295 290 284 278 273 272
63 62 61 60 61 62 64 63 61 58 54 52 49 47 45 42 40 40 41 42 41 38 33 30 34 35 35 31 28 27 28 30 30 30 30 25 21 17 12 9 4 0 356 349 344 339 336 332 327 324 322 320 316 311 308 304 304 303 304 305 307 305 300 296 294 291 288 283 280
65 63 62 62 63 64 65 65 63 60 57 54 50 48 47 45 42 43 45 45 43 41 38 36 36 33 32 31 31 31 32 32 30 29 26 22 18 15 11 7 4 0 356 351 347 343 338 333 329 326 324 321 318 315 312 309 307 305 304 303 304 304 303 300 300 299 297 293 289
68 67 66 66 66 67 67 67 67 64 61 58 53 51 50 48 44 45 46 45 42 40 39 35 33 29 26 25 25 26 27 27 25 23 19 15 11 8 6 3 360 356 353 350 347 344 340 336 332 328 325 322 319 316 314 312 310 308 306 304 304 305 306 306 307 307 305 302 297
70 68 67 68 68 68 68 68 67 66 62 59 55 52 50 47 44 43 43 42 39 35 32 29 27 25 22 19 19 20 22 22 19 17 14 9 5 2 0 358 355 352 349 347 345 342 339 336 333 330 327 324 320 318 316 315 313 311 309 307 306 306 307 308 310 309 308 306 302
67 65 65 65 65 65 65 65 64 61 59 56 52 50 47 44 42 40 38 37 36 33 29 24 23 22 22 19 17 17 19 19 16 12 8 3 359 357 356 353 351 348 346 345 342 339 337 334 332 331 329 327 324 321 319 318 316 313 311 309 308 306 306 307 309 309 308 307 305
61 59 58 58 59 59 59 59 58 56 53 50 48 45 42 39 38 36 33 30 29 30 29 23 20 20 20 20 17 17 17 16 11 7 2 358 356 355 353 350 348 346 345 342 339 336 334 333 332 331 330 329 326 324 322 320 317 315 313 311 308 307 306 306 307 307 307 306 306
56 54 53 53 53 53 53 52 51 50 47 44 41 39 36 33 34 33 30 24 21 23 26 24 20 17 15 14 15 14 12 11 7 3 359 357 356 354 352 349 347 345 344 341 338 336 334 332 331 330 329 328 326 324 322 320 317 314 312 310 308 306 304 304 304 304 303 303 304
53 52 50 49 50 50 49 47 46 45 43 40 37 35 32 28 29 28 25 18 15 17 20 20 16 13 10 8 9 7 5 4 3 0 357 356 355 353 350 348 346 344 343 341 338 334 331 329 328 327 326 325 324 321 320 319 316 313 310 307 305 303 301 300 300 299 299 298 298
53 51 50 49 49 49 47 45 43 42 40 36 33 30 27 25 23 20 16 12 14 16 16 14 11 8 5 3 2 0 358 358 359 358 356 354 351 349 347 346 344 342 340 337 333 330 328 326 325 324 323 322 320 318 317 316 314 312 309 306 303 301 299 298 296 295 294 293 293
54 52 51 50 49 48 46 44 42 39 36 32 28 24 22 20 16 13 11 12 13 13 10 8 5 1 358 357 357 357 355 354 353 352 351 350 346 344 343 343 342 338 335 331 327 326 326 325 324 323 321 320 318 316 315 314 312 311 309 307 305 303 301 298 296 294 293 291 291
52 51 49 47 45 43 40 38 35 33 29 25 21 19 17 14 11 10 9 10 9 7 4 1 357 353 352 353 355 356 354 351 349 347 345 345 343 341 340 339 338 333 328 322 326 329 330 328 326 323 321 319 317 315 313 311 310 309 309 309 308 306 303 301 298 296 295 294 293
46 44 41 36 36 34 33 31 29 26 22 18 15 14 13 11 9 7 6 5 4 1 358 354 350 348 350 352 352 352 351 348 345 342 340 339 339 338 338 337 334 329 325 321 326 328 329 328 327 325 323 320 317 315 313 310 309 308 308 309 308 307 306 304 302 301 299 297 297
36 35 32 29 29 28 28 25 23 20 16 12 11 9 7 4 3 3 2 0 357 354 352 349 346 347 349 350 348 347 345 343 340 338 336 335 335 335 335 334 331 328 324 324 326 327 327 326 326 325 323 319 318 316 315 312 311 310 308 307 307 307 307 306 307 306 304 302 301
30 28 26 24 26 25 23 19 18 15 12 9 8 5 1 357 359 360 359 356 351 348 346 346 344 344 345 344 343 341 338 335 333 332 331 329 328 328 328 327 326 323 322 323 324 324 324 324 324 323 323 320 318 316 315 313 311 309 307 306 305 305 305 305 305 306 306 305 304
26 23 21 23 24 21 17 15 14 11 8 4 1 357 355 354 356 356 354 348 344 342 342 340 337 337 338 339 336 332 329 327 326 325 324 324 322 321 320 319 319 318 318 320 321 321 321 321 321 321 320 320 317 314 311 308 307 306 305 304 303 303 302 302 302 303 303 303 303
21 20 21 23 20 16 13 13 10 6 0 357 354 352 352 354 353 350 347 344 341 339 337 332 331 333 334 333 328 325 325 324 322 322 322 322 320 318 316 314 313 314 315 317 317 318 318 318 318 318 318 318 316 312 310 306 304 303 302 300 300 299 298 298 297 297 298 298 298
16 18 20 20 17 14 11 8 3 357 353 350 352 353 353 352 349 346 343 341 337 331 326 324 331 333 332 326 325 325 325 322 321 321 321 320 317 314 312 311 311 310 311 313 314 314 315 315 315 315 315 316 313 309 305 303 301 300 299 298 296 296 295 294 294 294 293 294 294
12 17 19 18 14 10 3 358 354 351 350 352 354 354 353 351 345 341 337 334 327 323 323 329 334 332 327 324 326 324 322 319 319 318 316 313 310 308 307 306 305 304 306 309 310 312 313 313 314 314 314 313 311 308 303 302 301 300 298 297 296 295 294 293 292 292 291 291 291
9 14 17 16 9 1 354 350 350 352 354 355 356 354 351 347 339 334 329 325 324 326 331 337 337 332 329 327 325 321 318 315 313 310 307 304 302 300 300 300 299 299 302 307 309 311 312 313 313 313 313 313 310 307 304 301 300 298 295 293 292 292 291 291 290 290 289 289 289
7 11 13 12 2 354 349 350 353 355 357 357 355 352 347 341 334 330 328 326 327 330 332 332 331 327 324 322 319 315 312 307 303 301 299 297 295 295 296 297 295 298 303 308 310 312 312 313 314 313 313 313 311 308 304 300 297 294 291 288 287 285 284 284 283 284 284 285 284
4 6 7 4 357 352 350 351 355 358 358 356 351 346 341 336 332 328 325 323 323 322 320 316 313 310 307 305 304 303 302 299 297 296 295 294 292 292 293 294 293 300 305 309 311 312 313 314 315 315 315 315 312 308 302 297 294 291 288 285 283 281 280 279 279 279 279 280 280
5 5 2 357 354 352 351 352 355 357 356 350 342 336 331 327 321 314 310 307 309 308 304 298 293 290 289 288 288 290 293 295 295 294 293 292 293 293 293 293 291 299 305 309 312 314 315 316 316 317 317 317 313 307 301 297 294 291 288 287 285 284 283 282 281 280 279 279 278
7 6 360 352 348 348 349 350 352 351 347 338 329 322 317 310 301 293 290 294 299 300 297 293 292 291 291 291 288 289 291 292 294 294 295 295 296 296 296 294 292 299 306 311 313 315 316 317 318 318 319 318 313 308 304 300 297 294 292 292 291 290 289 288 287 285 283 280 278
3 4 357 346 340 339 339 342 344 338 329 317 309 303 298 293 284 278 276 284 293 294 292 289 290 290 289 290 290 289 288 287 292 295 297 298 299 298 297 297 295 300 306 312 314 316 317 318 319 320 320 318 314 310 306 303 301 299 298 297 295 294 294 292 291 288 286 283 280
350 354 348 334 323 320 322 326 323 312 301 292 285 280 276 275 272 270 271 276 284 289 291 290 290 288 287 288 290 289 288 286 289 293 296 298 298 298 298 299 299 301 306 311 314 316 317 318 319 320 321 318 314 311 308 305 303 302 300 299 298 296 295 294 293 290 287 284 283
328 330 320 302 295 294 295 296 287 281 277 275 273 271 269 264 262 262 264 266 268 275 282 287 287 286 288 294 297 298 296 292 290 291 294 296 296 300 303 303 302 302 305 310 313 315 317 318 319 320 321 318 315 311 308 305 303 302 301 300 299 297 296 293 292 290 287 285 285
311 305 290 272 268 268 270 269 264 261 260 263 267 269 267 261 261 263 264 262 259 263 271 279 283 286 292 301 303 303 301 298 296 294 294 295 298 304 307 305 302 300 302 306 311 314 316 318 319 321 321 318 315 312 309 306 304 304 303 302 301 300 298 296 293 290 288 288 288
301 292 277 262 256 254 254 255 255 254 253 255 258 261 263 263 264 267 268 269 267 270 275 283 288 292 297 305 306 305 304 303 302 300 299 300 302 306 307 304 300 298 299 303 310 314 317 319 320 321 322 321 318 316 313 309 308 307 306 305 304 303 302 301 298 295 292 293 293